This is the latest recevied weather packets stored in our database for station/object N3FU-13. If no packets are shown the sender has not sent any weather packets the latest 10 day(s).
| Time | Temp. | Humidity | Pressure | Rain* | Wind** | Luminosity | Snow |
|---|---|---|---|---|---|---|---|
| 1777435039 | 24.44° C | 76% | 1017.3 hPa | 0 mm | - | - | - |
| 1777434306 | 25° C | 75% | 1017.7 hPa | 0 mm | - | - | - |
| 1777434139 | 25° C | 75% | 1017.7 hPa | 0 mm | - | - | - |
| 1777433239 | 25° C | 74% | 1018 hPa | 0 mm | - | - | - |
| 1777432339 | 25.56° C | 74% | 1018 hPa | 0 mm | - | - | - |
| 1777431550 | 25.56° C | 73% | 1017.9 hPa | 0 mm | - | - | - |
| 1777431439 | 25.56° C | 73% | 1017.9 hPa | 0 mm | - | - | - |
| 1777430795 | 25.56° C | 74% | 1017.6 hPa | 0 mm | - | - | - |
| 1777430539 | 25.56° C | 74% | 1017.6 hPa | 0 mm | - | - | - |
| 1777429915 | 25.56° C | 74% | 1017.1 hPa | 0 mm | - | - | - |
| 1777429639 | 25.56° C | 74% | 1017.1 hPa | 0 mm | - | - | - |
| 1777429308 | 25.56° C | 74% | 1017.3 hPa | 0 mm | - | - | - |
| 1777428739 | 25.56° C | 74% | 1017.3 hPa | 0 mm | - | - | - |
| 1777427839 | 25° C | 69% | 1017.2 hPa | 0 mm | - | - | - |
| 1777427678 | 25.56° C | 66% | 1017.3 hPa | 0 mm | - | - | - |
| 1777426939 | 25.56° C | 66% | 1017.3 hPa | 0 mm | - | - | - |
| 1777426039 | 25.56° C | 64% | 1017.1 hPa | 0 mm | - | - | - |
| 1777425139 | 26.11° C | 64% | 1016.9 hPa | 0 mm | - | - | - |
| 1777424239 | 26.11° C | 62% | 1016.8 hPa | 0 mm | - | - | - |
| 1777424026 | 26.67° C | 60% | 1016.6 hPa | 0 mm | - | - | - |
| 1777423339 | 26.67° C | 60% | 1016.6 hPa | 0 mm | - | - | - |
| 1777422439 | 27.22° C | 59% | 1016.5 hPa | 0 mm | - | - | - |
| 1777421539 | 27.78° C | 58% | 1016.4 hPa | 0 mm | - | - | - |
| 1777420640 | 28.33° C | 57% | 1016.3 hPa | 0 mm | - | - | - |
| 1777420411 | 28.89° C | 55% | 1016.2 hPa | 0 mm | - | - | - |
* Rain latest hour (hover to see other rain measurements)
** Current wind speed in m/s (hover to see current wind gust speed)